Fortuna, CA

1:38 PM PST on December 08, 2019 (GMT -0800)
Rohnerville

Weather History for KFOT - September, 2019

Change the Weather History Date:

Monday, September 16, 2019

  Actual Average (KEKA) Record (KEKA)
Temperature  
Mean Temperature 60 °F -  
Max Temperature 68 °F 63 °F 75 °F (1927)
Min Temperature 53 °F 51 °F 44 °F (1969)
Degree Days  
Heating Degree Days 4    
Growing Degree Days 10 (Base 50)    
Moisture  
Dew Point 55 °F    
Average Humidity 85    
Maximum Humidity 100    
Minimum Humidity 56    
Precipitation  
Precipitation 0.04 in - - ()
Sea Level Pressure  
Sea Level Pressure 29.95 in    
Wind  
Wind Speed 5 mph ()    
Max Wind Speed 14 mph    
Max Gust Speed -    
Visibility 8.5 miles    
Events      
Averages and records for this station are not official NWS values.
T = Trace of Precipitation, MM = Missing Value Source: Averaged Metar Reports

Daily Weather History Graph

Daily Weather History Graph

Search for Another Location

Airport or City:

Astronomy

Sep. 16, 2019 Rise Set
Actual Time 6:58 AM PDT 7:23 PM PDT
Civil Twilight 6:30 AM PDT 7:51 PM PDT
Nautical Twilight 5:58 AM PDT 8:23 PM PDT
Astronomical Twilight 5:25 AM PDT 8:56 PM PDT
Moon 9:00 PM PDT (9/16) 9:10 AM PDT (9/16)
Length of Visible Light 13h 20m
Length of Day
12h 25m
Waning Gibbous, 94% of the Moon is Illuminated
Sep 16
Waning Gibbous
Sep 21
Last Quarter
Sep 28
New
Oct 5
First Quarter
Oct 13
Full

Hourly Weather History & Observations

Time (PDT) Temp. Dew Point Humidity Pressure Visibility Wind Dir Wind Speed Gust Speed Precip Events Conditions
12:15 AM 57.2 °F 55.4 °F 94% 29.88 in 5.0 mi Calm Calm - N/A   Overcast
12:35 AM 57.2 °F 55.4 °F 94% 29.88 in 7.0 mi Calm Calm - N/A   Overcast
12:55 AM 57.2 °F 55.4 °F 94% 29.87 in 10.0 mi SW 3.5 mph - N/A   Overcast
1:15 AM 57.2 °F 57.2 °F 100% 29.88 in 7.0 mi SW 3.5 mph - N/A   Overcast
1:35 AM 57.2 °F 57.2 °F 100% 29.87 in 7.0 mi SW 3.5 mph - N/A   Overcast
1:55 AM 57.2 °F 57.2 °F 100% 29.88 in 10.0 mi WSW 3.5 mph - N/A   Overcast
2:15 AM 57.2 °F 55.4 °F 94% 29.87 in 9.0 mi SE 3.5 mph - N/A   Overcast
2:35 AM 55.4 °F 55.4 °F 100% 29.87 in 10.0 mi ESE 4.6 mph - N/A   Scattered Clouds
2:55 AM 55.4 °F 55.4 °F 100% 29.87 in 10.0 mi ESE 3.5 mph - N/A   Scattered Clouds
3:15 AM 55.4 °F 55.4 °F 100% 29.87 in 1.0 mi SE 3.5 mph - N/A   Overcast
3:35 AM 55.4 °F 55.4 °F 100% 29.87 in 5.0 mi SE 4.6 mph - N/A   Overcast
3:55 AM 55.4 °F 55.4 °F 100% 29.87 in 0.2 mi SE 5.8 mph - N/A   Overcast
4:15 AM 55.4 °F 55.4 °F 100% 29.87 in 0.2 mi SSE 5.8 mph - N/A   Overcast
4:35 AM 55.4 °F 55.4 °F 100% 29.87 in 0.2 mi ESE 6.9 mph - N/A   Overcast
4:55 AM 55.4 °F 55.4 °F 100% 29.88 in 10.0 mi SE 6.9 mph - N/A   Overcast
5:15 AM 55.4 °F 55.4 °F 100% 29.88 in 3.0 mi Calm Calm - N/A   Overcast
5:35 AM 55.4 °F 55.4 °F 100% 29.89 in 5.0 mi South 4.6 mph - 0.01 in   Overcast
5:55 AM 55.4 °F 55.4 °F 100% 29.89 in 1.0 mi SE 4.6 mph - 0.01 in   Overcast
6:15 AM 55.4 °F 55.4 °F 100% 29.89 in 2.0 mi SE 4.6 mph - N/A   Overcast
6:35 AM 55.4 °F 55.4 °F 100% 29.90 in 7.0 mi SE 4.6 mph - N/A   Overcast
6:55 AM 55.4 °F 55.4 °F 100% 29.90 in 10.0 mi SE 5.8 mph - N/A   Overcast
7:15 AM 53.6 °F 53.6 °F 100% 29.91 in 10.0 mi ESE 5.8 mph - N/A   Scattered Clouds
7:35 AM 55.4 °F 53.6 °F 94% 29.91 in 8.0 mi SSE 5.8 mph - N/A   Partly Cloudy
7:55 AM 55.4 °F 55.4 °F 100% 29.91 in 4.0 mi SE 6.9 mph - N/A   Mostly Cloudy
8:15 AM 55.4 °F 55.4 °F 100% 29.92 in 10.0 mi ESE 6.9 mph - N/A   Mostly Cloudy
8:35 AM 55.4 °F 55.4 °F 100% 29.92 in 10.0 mi SE 6.9 mph - N/A   Mostly Cloudy
8:55 AM 57.2 °F 57.2 °F 100% 29.93 in 10.0 mi SSE 5.8 mph - N/A   Mostly Cloudy
9:15 AM 57.2 °F 57.2 °F 100% 29.94 in 10.0 mi SE 6.9 mph - N/A   Mostly Cloudy
9:35 AM 57.2 °F 57.2 °F 100% 29.94 in 10.0 mi SE 4.6 mph - N/A   Scattered Clouds
9:55 AM 59.0 °F 57.2 °F 94% 29.94 in 10.0 mi ESE 4.6 mph - N/A   Scattered Clouds
10:15 AM 60.8 °F 57.2 °F 88% 29.95 in 10.0 mi SSE 3.5 mph - N/A   Scattered Clouds
10:35 AM 62.6 °F 57.2 °F 82% 29.95 in 10.0 mi Calm Calm - N/A   Partly Cloudy
10:55 AM 64.4 °F 57.2 °F 77% 29.95 in 10.0 mi South 3.5 mph - N/A   Scattered Clouds
11:15 AM 62.6 °F 53.6 °F 72% 29.95 in 10.0 mi Calm Calm - N/A   Scattered Clouds
11:35 AM 60.8 °F 53.6 °F 77% 29.95 in 3.0 mi Calm Calm - 0.03 in   Partly Cloudy
11:55 AM 62.6 °F 55.4 °F 77% 29.96 in 10.0 mi Calm Calm - 0.03 in   Scattered Clouds
12:15 PM 64.4 °F 57.2 °F 77% 29.96 in 10.0 mi NW 3.5 mph - N/A   Mostly Cloudy
12:35 PM 66.2 °F 55.4 °F 68% 29.96 in 10.0 mi WNW 9.2 mph - N/A   Mostly Cloudy
12:55 PM 64.4 °F 53.6 °F 68% 29.97 in 10.0 mi WNW 8.1 mph - N/A   Scattered Clouds
1:15 PM 66.2 °F 53.6 °F 64% 29.97 in 10.0 mi WNW 9.2 mph - N/A   Partly Cloudy
1:35 PM 68.0 °F 51.8 °F 56% 29.97 in 10.0 mi WNW 8.1 mph - N/A   Partly Cloudy
1:55 PM 66.2 °F 51.8 °F 60% 29.98 in 10.0 mi WNW 10.4 mph - N/A   Partly Cloudy
2:15 PM 68.0 °F 51.8 °F 56% 29.98 in 10.0 mi NW 13.8 mph - N/A   Partly Cloudy
2:35 PM 68.0 °F 51.8 °F 56% 29.98 in 10.0 mi WNW 10.4 mph - N/A   Partly Cloudy
2:55 PM 68.0 °F 51.8 °F 56% 29.98 in 10.0 mi NW 10.4 mph - N/A   Partly Cloudy
3:15 PM 68.0 °F 51.8 °F 56% 29.98 in 10.0 mi NW 12.7 mph - N/A   Partly Cloudy
3:35 PM 68.0 °F 51.8 °F 56% 29.98 in 10.0 mi WNW 12.7 mph - N/A   Partly Cloudy
3:55 PM 68.0 °F 51.8 °F 56% 29.99 in 10.0 mi NW 12.7 mph - N/A   Clear
4:15 PM 68.0 °F 51.8 °F 56% 29.99 in 10.0 mi WNW 11.5 mph - N/A   Clear
4:35 PM 68.0 °F 51.8 °F 56% 29.99 in 10.0 mi NW 11.5 mph - N/A   Clear
4:55 PM 66.2 °F 51.8 °F 60% 29.99 in 10.0 mi NNW 12.7 mph - N/A   Clear
5:15 PM 66.2 °F 53.6 °F 64% 30.00 in 10.0 mi NW 11.5 mph - N/A   Clear
5:35 PM 66.2 °F 53.6 °F 64% 29.99 in 10.0 mi NW 8.1 mph - N/A   Clear
5:55 PM 66.2 °F 53.6 °F 64% 30.00 in 10.0 mi NW 9.2 mph - N/A   Clear
6:15 PM 64.4 °F 53.6 °F 68% 30.00 in 10.0 mi NW 9.2 mph - N/A   Clear
6:35 PM 64.4 °F 53.6 °F 68% 30.01 in 10.0 mi NW 9.2 mph - N/A   Clear
6:55 PM 62.6 °F 55.4 °F 77% 30.01 in 10.0 mi WNW 8.1 mph - N/A   Clear
7:15 PM 62.6 °F 55.4 °F 77% 30.01 in 10.0 mi NW 5.8 mph - N/A   Clear
7:35 PM 59.0 °F 55.4 °F 88% 30.02 in 10.0 mi NNW 4.6 mph - N/A   Clear
7:55 PM 59.0 °F 55.4 °F 88% 30.02 in 10.0 mi North 3.5 mph - N/A   Clear
8:15 PM 59.0 °F 53.6 °F 82% 30.02 in 10.0 mi North 3.5 mph - N/A   Clear
8:35 PM 59.0 °F 53.6 °F 82% 30.02 in 10.0 mi Calm Calm - N/A   Clear
8:55 PM 59.0 °F 53.6 °F 82% 30.03 in 10.0 mi SW 3.5 mph - N/A   Clear
9:15 PM 57.2 °F 53.6 °F 88% 30.03 in 10.0 mi SSE 3.5 mph - N/A   Clear
9:35 PM 57.2 °F 55.4 °F 94% 30.04 in 10.0 mi SSE 3.5 mph - N/A   Clear
9:55 PM 55.4 °F 53.6 °F 94% 30.04 in 10.0 mi SSE 4.6 mph - N/A   Clear
10:35 PM 55.4 °F 53.6 °F 94% 30.04 in 10.0 mi SSE 6.9 mph - N/A   Clear
10:55 PM 55.4 °F 53.6 °F 94% 30.04 in 10.0 mi SE 6.9 mph - N/A   Clear
11:15 PM 53.6 °F 53.6 °F 100% 30.05 in 10.0 mi SE 6.9 mph - N/A   Clear
11:35 PM 53.6 °F 53.6 °F 100% 30.05 in 10.0 mi SE 6.9 mph - N/A   Clear
11:55 PM 53.6 °F 53.6 °F 100% 30.05 in 10.0 mi SSE 8.1 mph - N/A   Clear